TimeMDT,TemperatureF,Dew PointF,Humidity,Sea Level PressureIn,VisibilityMPH,Wind Direction,Wind SpeedMPH,Gust SpeedMPH,PrecipitationIn,Events,Conditions,WindDirDegrees,DateUTC
12:54 AM,37.9,35.1,89,29.94,10.0,Calm,Calm,-,0.00,Rain,Light Rain,0,2011-10-15 06:54:00
1:54 AM,39.9,35.1,83,29.91,10.0,East,3.5,-,0.00,,Overcast,90,2011-10-15 07:54:00
2:54 AM,37.9,36.0,93,29.91,10.0,Variable,3.5,-,0.00,Rain,Light Rain,0,2011-10-15 08:54:00
3:54 AM,37.9,36.0,93,29.89,10.0,NNE,3.5,-,0.00,,Mostly Cloudy,30,2011-10-15 09:54:00
4:54 AM,37.0,35.1,93,29.89,10.0,Calm,Calm,-,N/A,,Partly Cloudy,0,2011-10-15 10:54:00
5:54 AM,37.0,34.0,89,29.88,10.0,Calm,Calm,-,0.00,Rain,Light Rain,0,2011-10-15 11:54:00
7:02 AM,37.4,35.6,93,29.89,10.0,WNW,8.1,19.6,0.00,Rain,Light Rain,300,2011-10-15 13:02:00
7:54 AM,37.0,36.0,96,29.96,6.0,West,9.2,-,0.03,Rain,Light Rain,270,2011-10-15 13:54:00
8:09 AM,37.4,35.6,93,29.93,5.0,West,8.1,-,0.01,Rain,Light Rain,270,2011-10-15 14:09:00
8:54 AM,36.0,36.0,100,30.00,7.0,WNW,11.5,-,0.05,Rain,Light Rain,290,2011-10-15 14:54:00
9:24 AM,35.6,35.6,100,29.96,6.0,WNW,9.2,-,0.03,Rain,Light Rain,290,2011-10-15 15:24:00
9:51 AM,35.6,35.6,100,29.97,6.0,West,8.1,-,0.04,Rain,Light Rain,280,2011-10-15 15:51:00
9:54 AM,36.0,35.1,97,30.02,7.0,West,8.1,-,0.04,Rain,Light Rain,280,2011-10-15 15:54:00
10:46 AM,35.6,35.6,100,29.99,10.0,West,8.1,-,0.03,Rain,Light Rain,280,2011-10-15 16:46:00
10:54 AM,36.0,35.1,97,30.04,10.0,West,8.1,-,0.03,Rain,Light Rain,280,2011-10-15 16:54:00
11:54 AM,37.0,36.0,96,30.04,10.0,WNW,5.8,-,0.03,Rain,Light Rain,290,2011-10-15 17:54:00
12:54 PM,39.0,37.0,93,30.04,10.0,WSW,10.4,-,0.01,,Overcast,250,2011-10-15 18:54:00
1:20 PM,39.2,37.4,93,30.00,10.0,West,10.4,-,N/A,,Overcast,280,2011-10-15 19:20:00
1:54 PM,41.0,37.9,89,30.03,10.0,West,9.2,-,N/A,,Overcast,270,2011-10-15 19:54:00
2:25 PM,42.8,37.4,81,30.00,10.0,West,11.5,-,N/A,,Overcast,280,2011-10-15 20:25:00
2:54 PM,42.1,34.0,73,30.05,10.0,West,11.5,-,N/A,,Partly Cloudy,280,2011-10-15 20:54:00
4:54 PM,46.0,27.0,47,30.06,10.0,NW,6.9,-,N/A,,Clear,320,2011-10-15 22:54:00
5:54 PM,44.1,28.0,53,30.07,10.0,WNW,11.5,-,N/A,,Clear,300,2011-10-15 23:54:00
6:54 PM,39.9,30.0,68,30.09,10.0,West,4.6,-,N/A,,Clear,280,2011-10-16 00:54:00
7:54 PM,34.0,28.9,82,30.14,10.0,SSW,5.8,-,N/A,,Clear,210,2011-10-16 01:54:00
8:54 PM,33.1,28.9,85,30.16,10.0,WSW,5.8,-,N/A,,Clear,250,2011-10-16 02:54:00
9:54 PM,30.9,28.0,89,30.19,10.0,SSE,5.8,-,N/A,,Clear,150,2011-10-16 03:54:00
11:54 PM,28.0,26.1,92,30.20,10.0,SE,5.8,-,N/A,,Clear,140,2011-10-16 05:54:00